Location: Handeloh
(53.2500°N, 9.8330°E)
Time: 11:08:27
(UTC+01:00)

S-56A Canister/Altair - Pass Details

Date: 25 November 2019
Orbit: 633 x 2500 km, 38.9° (Epoch: 08 December)

Event Time Altitude Azimuth Distance (km) Brightness Sun altitude
Rises 13:05:17 0° 188° (S) 6,050 14.0 15.0°
Reaches altitude 10° 13:12:27 10° 167° (SSE) 4,780 12.8 14.7°
Maximum altitude 13:17:39 13° 143° (SE) 4,225 11.9 14.5°
Drops below altitude 10° 13:22:19 10° 118° (ESE) 4,198 11.5 14.3°
Sets 13:27:39 0° 95° (E) 4,780 11.4 14.0°
